Regional Weather Roundup
Issued by NWS

Home | Current Version | Previous Version | Graphics & Text | Print | Product List | Glossary On
Versions: 1 2 3 4 5 6 7 8 9 10 11 12 13 14 15 16 17 18 19 20 21 22 23 24 25 26 27 28 29 30 31 32 33 34 35 36 37 38 39 40 41 42 43 44 45 46 47 48 49 50
000
ASUS43 KBIS 211610
RWRND

NORTH DAKOTA REGIONAL WEATHER ROUNDUP
NATIONAL WEATHER SERVICE BISMARCK ND
1100 AM CDT FRI JUL 21 2017

NOTE: "FAIR" INDICATES FEW OR NO CLOUDS BELOW 12,000 FEET WITH NO
SIGNIFICANT WEATHER AND/OR OBSTRUCTIONS TO VISIBILITY.


NDZ001>003-009>011-017-211700-
NORTHWEST NORTH DAKOTA

CITY           SKY/WX    TMP DP  RH WIND       PRES   REMARKS
WILLISTON      CLOUDY    77  60  55 S9        29.79F
MINOT          CLOUDY    71  62  73 N6        29.79F
MINOT AFB      LGT RAIN  68  60  76 NE8G24    29.73F
$$

NDZ018>021-031>035-040>046-211700-
SOUTHWEST NORTH DAKOTA

CITY           SKY/WX    TMP DP  RH WIND       PRES   REMARKS
BISMARCK       PTSUNNY   80  64  58 SE3       29.85R
DICKINSON      SUNNY     79  65  62 CALM      29.83F
GARRISON         N/A     80  64  58 N8        29.81S
HETTINGER ARPT MOSUNNY   79  65  62 SW10      29.87R
$$

NDZ004>008-012>016-024-026-027-054-211700-
NORTHEAST NORTH DAKOTA

CITY           SKY/WX    TMP DP  RH WIND       PRES   REMARKS
GRAND FORKS    PTSUNNY   82  73  74 S8        29.78F
GRND FRKS AFB  MOSUNNY   80  72  75 S7        29.79F
DEVILS LAKE    MOSUNNY   79  69  71 S13       29.80F
$$

NDZ022-023-025-028>030-036>039-047>053-211700-
SOUTHEAST NORTH DAKOTA

CITY           SKY/WX    TMP DP  RH WIND       PRES   REMARKS
FARGO          MOSUNNY   84  74  71 SW13      29.78F HX  91
JAMESTOWN      PTSUNNY   80  68  66 N3        29.82F
$$




USA.gov is the U.S. government's official web portal to all federal, state and local government web resources and services.